"TOA5","AWS1","CR1000","7964","CR1000.Std.14","CPU:AWS1_114.CR1","64363","TBL110"
"TIMESTAMP","RECORD","Wind_spd_WVc(1)","Wind_spd_WVc(2)","Air_Temp_Avg","Humidity_Avg","SW_upper_Wm2_Avg","Rain_Tot","Press_Avg","Issui_Tot","Depth_cm","SR50A_Raw","Quality","Ground_Temp_Avg(1)","Ground_Temp_Avg(2)","SW_lower_Wm2_Avg","Albedo_Avg","SWC_per(1)","SWC_per(2)","Period(1)","Period(2)"
"TS","RN","","","","","","","","","","","","","","","","","","",""
"","","WVc","WVc","Avg","Avg","Avg","Tot","Avg","Tot","Smp","Smp","Smp","Avg","Avg","Avg","Avg","Smp","Smp","Smp","Smp"
"2016-07-25 00:00:00",245725,0.318,83.8,16.97,100,0,0,868.923,0,-1.601,3.101,200,22.36,21.54,0.1553712,0,43.68,51.55,31.68,33.68
"2016-07-25 00:10:00",245726,0.493,126.1,16.91,100,0,0,868.923,0,-1.323,3.099,199,22.32,21.54,0,0,43.73,51.6,31.7,33.69
"2016-07-25 00:20:00",245727,0.31,145.4,16.78,100,0,0,868.923,0,-1.481,3.101,199,22.24,21.54,0.02273725,0,43.73,51.55,31.7,33.68
"2016-07-25 00:30:00",245728,0.074,119.4,16.84,100,0,0,868.923,0,-1.323,3.099,199,22.26,21.54,0.2160038,0,43.73,51.6,31.7,33.69
"2016-07-25 00:40:00",245729,0.011,89.5,16.89,100,0,0,868.921,0,-1.37,3.099,195,22.3,21.54,0.231162,0,43.73,51.55,31.7,33.68
"2016-07-25 00:50:00",245730,0,0,16.96,100,0,0,868.8073,0,-1.418,3.099,198,22.19,21.53,0.2273725,0,43.68,51.55,31.68,33.68
"2016-07-25 01:00:00",245731,0.034,103.7,16.91,100,0,0,868.6746,0,-1.323,3.099,194,22.15,21.51,0.2235829,0,43.73,51.6,31.7,33.69
"2016-07-25 01:10:00",245732,0.055,134.5,16.88,100,0,0,868.6766,0,-1.244,3.098,198,22.17,21.52,0.2273725,0,43.68,51.6,31.68,33.69
"2016-07-25 01:20:00",245733,0,0,16.95,100,0,0,868.6893,0,-1.133,3.096,199,22.16,21.48,0.2273725,0,43.68,51.55,31.68,33.68
"2016-07-25 01:30:00",245734,0,0,17.02,100,0,0,868.782,0,-1.062,3.096,198,22.07,21.46,0.2273725,0,43.68,51.55,31.68,33.68
"2016-07-25 01:40:00",245735,0,0,16.94,100,0,0,868.8514,0,-0.911,3.095,200,22.06,21.45,0.2084248,0,43.68,51.55,31.68,33.68
"2016-07-25 01:50:00",245736,0,0,16.94,100,0,0,868.923,0,-1.062,3.096,199,22.08,21.45,0.2273725,0,43.68,51.55,31.68,33.68
"2016-07-25 02:00:00",245737,0.082,103.3,16.91,100,0,0,868.923,0,-0.934,3.095,199,22.03,21.46,0.1667398,0,43.68,51.55,31.68,33.68
"2016-07-25 02:10:00",245738,0,0,16.94,100,0,0,868.8662,0,-1.006,3.095,198,21.98,21.47,0.2160038,0,43.68,51.55,31.68,33.68
"2016-07-25 02:20:00",245739,0.097,132,16.8,100,0,0,868.7356,0,-0.965,3.096,200,21.99,21.49,0.003789541,0,43.68,51.55,31.68,33.68
"2016-07-25 02:30:00",245740,0,0,16.77,100,0,0,868.6914,0,-0.966,3.096,198,22.04,21.49,0.07579082,0,43.73,51.6,31.7,33.69
"2016-07-25 02:40:00",245741,0,0,16.83,100,0,0,868.7525,0,-1.164,3.097,197,22,21.5,0.2273725,0,43.68,51.6,31.68,33.69
"2016-07-25 02:50:00",245742,0,0,16.91,100,0,0,868.6703,0,-0.934,3.095,198,21.9,21.52,0.2235829,0,43.68,51.55,31.68,33.68
"2016-07-25 03:00:00",245743,0.069,80.8,16.9,100,0,0,868.6746,0,-0.736,3.094,198,21.92,21.54,0.1743189,0,43.73,51.6,31.7,33.69
"2016-07-25 03:10:00",245744,0.02,67.37,16.74,100,0,0,868.6703,0,-0.506,3.092,199,21.97,21.54,0.04547449,0,43.68,51.55,31.68,33.68
"2016-07-25 03:20:00",245745,0.012,63.83,16.73,100,0,0,868.6808,0,-0.657,3.093,199,21.9,21.53,0.1856875,0,43.68,51.55,31.68,33.68
"2016-07-25 03:30:00",245746,0.009,211.6,16.77,100,0,0,868.6829,0,-0.474,3.091,209,21.8,21.52,0.1136862,0,43.68,51.6,31.68,33.69
"2016-07-25 03:40:00",245747,0,0,16.73,100,0,0,868.6703,0,-0.505,3.092,203,21.82,21.49,0.02652679,0,43.73,51.6,31.7,33.69
"2016-07-25 03:50:00",245748,0,0,16.63,100,0,0,868.6703,0,-0.768,3.095,200,21.85,21.44,0,0,43.68,51.55,31.68,33.68
"2016-07-25 04:00:00",245749,0,0,16.72,100,0,0,868.6703,0,-2.305,3.109,198,21.8,21.41,0.1174758,0,43.73,51.55,31.7,33.68
"2016-07-25 04:10:00",245750,0.082,159.1,16.56,100,0,0,868.6703,0,-2.24,3.11,198,21.73,21.37,0.05684311,0,43.68,51.55,31.68,33.68
"2016-07-25 04:20:00",245751,0.09,157.6,16.41,100,0,0,868.6914,0,-2.113,3.109,197,21.72,21.38,0,0,43.68,51.55,31.68,33.68
"2016-07-25 04:30:00",245752,0.097,104.4,16.44,100,0,0,868.8768,0,-2.113,3.109,189,21.76,21.42,0.1250549,0,43.68,51.55,31.68,33.68
"2016-07-25 04:40:00",245753,0,0,16.48,100,0,0,868.923,0,-2.367,3.111,197,21.72,21.45,0.2197934,0,43.68,51.55,31.68,33.68
"2016-07-25 04:50:00",245754,0.001,32.38,16.52,100,0.3026318,0,868.9202,0,-2.264,3.11,198,21.69,21.45,0.4547449,0.592,43.68,51.55,31.68,33.68
"2016-07-25 05:00:00",245755,0,0,16.53,100,1.072967,0,868.985,0,-2.264,3.11,199,21.64,21.43,0.4282182,0.407,43.68,51.55,31.68,33.68
"2016-07-25 05:10:00",245756,0.017,26.71,16.59,100,1.862954,0,869.1613,0,-1.702,3.105,205,21.68,21.38,0.4736926,0.255,43.73,51.55,31.7,33.68
"2016-07-25 05:20:00",245757,0.093,27.81,16.39,100,3.525464,0,869.113,0,-1.551,3.104,208,21.71,21.37,0.6063265,0.168,43.68,51.55,31.68,33.68
"2016-07-25 05:30:00",245758,0.158,119.7,16.37,100,11.1738,0,868.9227,0,-0.782,3.097,214,21.7,21.37,1.936455,0.174,43.68,51.55,31.68,33.68
"2016-07-25 05:40:00",245759,0.034,120.6,16.39,100,33.78078,0,868.923,0,-0.846,3.096,226,21.63,21.37,5.790419,0.172,43.68,51.55,31.68,33.68
"2016-07-25 05:50:00",245760,0.032,322.9,16.52,100,23.65638,0,869.0684,0,-0.878,3.097,221,21.55,21.37,4.115441,0.174,43.73,51.55,31.7,33.68
"2016-07-25 06:00:00",245761,0,0,16.65,100,24.67039,0,869.1695,0,-1.021,3.097,234,21.59,21.36,4.069967,0.165,43.68,51.55,31.68,33.68
"2016-07-25 06:10:00",245762,0.054,156.1,16.66,100,33.37597,0,868.9568,0,0.278,3.086,397,21.61,21.32,5.074195,0.152,43.73,51.55,31.7,33.68
"2016-07-25 06:20:00",245763,0.359,163.3,16.43,100,43.57898,0,868.9252,0,-0.054,3.089,314,21.56,21.28,6.449799,0.148,43.68,51.55,31.68,33.68
"2016-07-25 06:30:00",245764,0.254,125.6,16.52,100,69.18084,0,868.923,0,-2.416,3.111,221,21.51,21.28,10.73577,0.155,43.68,51.55,31.68,33.68
"2016-07-25 06:40:00",245765,0.198,82.2,16.67,100,71.24818,0,868.923,0,-1.227,3.099,243,21.45,21.29,10.94798,0.154,43.68,51.55,31.68,33.68
"2016-07-25 06:50:00",245766,0.034,137,16.93,100,72.39188,0,868.923,0,-1.474,3.1,222,21.45,21.3,11.00483,0.152,43.73,51.55,31.7,33.68
"2016-07-25 07:00:00",245767,0.163,43.47,16.99,100,98.65797,0,868.9252,0,-4.05,3.125,192,21.45,21.31,14.94595,0.151,43.68,51.55,31.68,33.68
"2016-07-25 07:10:00",245768,0.216,141.8,17.07,100,108.1535,0,868.923,0,-1.014,3.096,228,21.46,21.31,16.1965,0.148,43.68,51.55,31.68,33.68
"2016-07-25 07:20:00",245769,0.405,127.3,16.85,100,86.31296,0,868.9217,0,-0.91,3.095,216,21.49,21.34,12.58128,0.146,43.68,51.55,31.68,33.68
"2016-07-25 07:30:00",245770,0.364,122.8,16.83,100,85.12601,0,868.9186,0,-1.267,3.098,215,21.49,21.34,12.27811,0.144,43.68,51.55,31.68,33.68
"2016-07-25 07:40:00",245771,0.273,134,16.77,100,81.96213,0,868.922,0,-1.434,3.101,210,21.47,21.31,11.98253,0.145,43.68,51.55,31.68,33.68
"2016-07-25 07:50:00",245772,0.591,132.4,16.82,100,127.4394,0,868.8301,0,-1.505,3.101,223,21.41,21.29,19.63361,0.154,43.68,51.55,31.68,33.68
"2016-07-25 08:00:00",245773,0.617,119,16.89,99.5,199.7881,0,868.6689,0,-0.69,3.091,250,21.37,21.29,31.83215,0.159,43.68,51.55,31.68,33.68
"2016-07-25 08:10:00",245774,0.097,11.95,17.49,92.9,251.9272,0,868.6631,0,-3.889,3.119,213,21.39,21.28,39.83186,0.158,43.68,51.55,31.68,33.68
"2016-07-25 08:20:00",245775,0.169,111.4,17.73,93.9,171.832,0,868.6612,0,-0.555,3.086,216,21.36,21.28,24.8556,0.144,43.68,51.55,31.68,33.68
"2016-07-25 08:30:00",245776,0.091,91.1,17.87,93.5,135.7913,0,868.6477,0,-0.428,3.085,274,21.34,21.22,18.76202,0.138,43.68,51.55,31.68,33.68
"2016-07-25 08:40:00",245777,0.163,130.1,17.7,96.6,149.6652,0,868.6525,0,-0.737,3.088,218,21.33,21.19,21.33133,0.141,43.73,51.49,31.7,33.66
"2016-07-25 08:50:00",245778,0.407,123.5,17.74,95.9,242.636,0,868.645,0,-2.723,3.107,227,21.33,21.19,36.59181,0.151,43.68,51.49,31.68,33.66
"2016-07-25 09:00:00",245779,0.188,126.7,17.94,91.8,228.711,0,868.5547,0,-1.372,3.093,210,21.35,21.19,34.24229,0.15,43.73,51.49,31.7,33.66
"2016-07-25 09:10:00",245780,0.143,110.3,18.09,89.9,260.6171,0,868.3939,0,-1.119,3.091,221,21.38,21.19,38.96785,0.149,43.68,51.49,31.68,33.66
"2016-07-25 09:20:00",245781,0.052,212.3,18.35,93.4,260.0932,0,868.5494,0,-1.323,3.09,241,21.43,21.19,38.20977,0.147,43.68,51.49,31.68,33.66
"2016-07-25 09:30:00",245782,0.227,58.81,18.57,95.5,282.6389,0,868.5303,0,-0.702,3.084,232,21.45,21.19,41.59727,0.147,43.68,51.49,31.68,33.66
"2016-07-25 09:40:00",245783,0.349,48.63,18.38,98.1,189.5452,0,868.4346,0,-0.947,3.088,271,21.45,21.19,26.76868,0.141,43.68,51.49,31.68,33.66
"2016-07-25 09:50:00",245784,0.108,322.2,18.3,96.7,172.1417,0,868.3474,0,-3.553,3.113,195,21.45,21.19,24.57829,0.143,43.68,51.49,31.68,33.66
"2016-07-25 10:00:00",245785,0.166,345,18.26,97.1,265.905,0,868.3451,0,0.069,3.077,289,21.45,21.22,39.80441,0.149,43.68,51.49,31.68,33.66
"2016-07-25 10:10:00",245786,0.06,288.6,18.41,96.4,150.1743,0,868.3394,0,-0.376,3.082,288,21.45,21.2,20.94833,0.139,43.68,51.49,31.68,33.66
"2016-07-25 10:20:00",245787,0.152,20.54,18.48,97.1,223.477,0,868.3387,0,0.174,3.076,298,21.44,21.14,32.66865,0.146,43.68,51.49,31.68,33.66
"2016-07-25 10:30:00",245788,0.1,331.3,18.5,96.8,182.0601,0,868.3427,0,0.199,3.076,300,21.44,21.1,25.6884,0.141,43.68,51.49,31.68,33.66
"2016-07-25 10:40:00",245789,0.119,69.31,18.38,98.7,112.0767,0,868.3452,0,0.919,3.069,361,21.43,21.1,14.34678,0.124,43.63,51.49,31.67,33.66
"2016-07-25 10:50:00",245790,0.213,14.83,18.29,99.3,172.07,0,868.3822,0,0.114,3.077,208,21.45,21.1,25.02967,0.139,43.68,51.49,31.68,33.66
"2016-07-25 11:00:00",245791,0.103,11.99,18.5,97,249.5537,0,868.3585,0,-0.168,3.077,267,21.53,21.1,37.53107,0.15,43.63,51.44,31.67,33.65
"2016-07-25 11:10:00",245792,0.185,307.3,18.87,88.5,395.2606,0,868.363,0,-0.064,3.076,218,21.53,21.1,60.55563,0.153,43.63,51.49,31.67,33.66
"2016-07-25 11:20:00",245793,0.235,157.6,19.33,86.9,366.2296,0,868.3496,0,-0.994,3.082,207,21.53,21.1,53.04512,0.143,43.68,51.44,31.68,33.65
"2016-07-25 11:30:00",245794,0.284,124,19.08,88.5,342.557,0,868.2595,0,-0.74,3.08,211,21.55,21.1,49.63504,0.139,43.63,51.44,31.67,33.65
"2016-07-25 11:40:00",245795,0.336,107.5,19.57,83.1,390.5161,0,868.1847,0,-0.669,3.078,214,21.54,21.1,57.97433,0.148,43.63,51.44,31.67,33.65
"2016-07-25 11:50:00",245796,0.243,154.6,19.23,85.4,178.2658,0,868.1517,0,-0.564,3.08,209,21.6,21.09,23.75506,0.132,43.63,51.44,31.67,33.65
"2016-07-25 12:00:00",245797,0.176,248.5,19.25,85,215.6611,0,868.0731,0,0.179,3.071,258,21.6,21.08,31.79551,0.147,43.63,51.44,31.67,33.65
"2016-07-25 12:10:00",245798,0.284,2.244,19.4,82.2,285.7335,0,868.0794,0,-0.484,3.076,207,21.57,21.09,42.95936,0.15,43.58,51.44,31.66,33.65
"2016-07-25 12:20:00",245799,0.122,359.2,19.89,80.1,521.8724,0,868.0073,0,-2.127,3.088,196,21.54,21.09,82.4096,0.156,43.63,51.44,31.67,33.65
"2016-07-25 12:30:00",245800,0.301,34.45,20.23,77.74,351.9716,0,868.0175,0,-3.004,3.099,212,21.63,21.08,50.96141,0.144,43.58,51.44,31.66,33.65
"2016-07-25 12:40:00",245801,0.286,241.4,19.98,80.5,273.4733,0,867.8366,0,-0.62,3.076,227,21.66,21.07,38.33496,0.14,43.63,51.44,31.67,33.65
"2016-07-25 12:50:00",245802,0.163,290.9,19.85,81.3,227.7208,0,867.8231,0,-1.991,3.089,219,21.64,21.03,31.13546,0.136,43.58,51.44,31.66,33.65
"2016-07-25 13:00:00",245803,0.041,132.6,20.01,80.3,227.9402,0,867.8209,0,-2.75,3.097,214,21.61,20.98,30.48038,0.133,43.58,51.38,31.66,33.64
"2016-07-25 13:10:00",245804,0.281,128.3,19.9,82.1,393.7039,0,867.7508,0,0.611,3.065,330,21.69,20.98,58.01638,0.147,43.58,51.38,31.66,33.64
"2016-07-25 13:20:00",245805,0.205,142.8,20.23,81.4,424.6209,0,867.6138,0,-3.13,3.097,246,21.73,21.04,62.12828,0.146,43.58,51.38,31.66,33.64
"2016-07-25 13:30:00",245806,0.172,35.97,20.48,74.13,369.7687,0,867.5717,0,-3.078,3.097,197,21.69,21.03,53.13128,0.143,43.58,51.38,31.66,33.64
"2016-07-25 13:40:00",245807,0.177,110.2,20.27,77.24,203.6513,0,867.5696,0,-1.453,3.082,262,21.74,20.93,26.31528,0.129,43.53,51.38,31.64,33.64
"2016-07-25 13:50:00",245808,0.083,188.4,20.3,78.98,183.0546,0,867.538,0,-1.29,3.08,305,21.81,20.9,23.27257,0.127,43.53,51.38,31.64,33.64
"2016-07-25 14:00:00",245809,0.074,72.25,20.4,77.57,315.2276,0,867.3202,0,-2.984,3.094,192,21.82,20.91,47.06511,0.144,43.53,51.38,31.64,33.64
"2016-07-25 14:10:00",245810,0.294,134.2,21.08,76.7,451.5245,0,867.3213,0,-3.867,3.103,219,21.87,20.99,68.59141,0.144,43.58,51.38,31.66,33.64
"2016-07-25 14:20:00",245811,0.038,130.1,20.76,77.11,209.6175,0,867.3189,0,-2.258,3.088,213,21.9,20.94,27.79638,0.132,43.47,51.38,31.63,33.64
"2016-07-25 14:30:00",245812,0.198,183.3,20.55,79.28,304.9939,0,867.3193,0,-1.189,3.077,301,21.85,20.9,44.86123,0.147,43.47,51.33,31.63,33.62
"2016-07-25 14:40:00",245813,0.125,194.1,21.03,75.54,377.1284,0,867.3194,0,-3.684,3.101,189,21.83,20.95,55.68004,0.147,43.47,51.33,31.63,33.62
"2016-07-25 14:50:00",245814,0.57,147.3,20.41,78.46,290.7213,0,867.2316,0,-2.267,3.091,222,21.98,20.98,39.29305,0.135,43.53,51.33,31.64,33.62
"2016-07-25 15:00:00",245815,0.254,121.7,20.13,79.28,132.2081,0,867.2756,0,-4.14,3.11,184,21.99,20.91,15.89917,0.119,43.47,51.33,31.63,33.62
"2016-07-25 15:10:00",245816,0.105,108.2,19.91,81.1,123.9824,0,867.2792,0,-0.243,3.071,237,21.98,20.92,15.17538,0.123,43.53,51.33,31.64,33.62
"2016-07-25 15:20:00",245817,0.122,75.21,20.13,78.99,128.5277,0,867.1738,0,-3.178,3.1,217,22,20.95,17.14604,0.132,43.47,51.33,31.63,33.62
"2016-07-25 15:30:00",245818,0.181,349.3,20.52,77.7,366.0638,0,867.1527,0,2.639,3.04,321,22.07,20.94,63.31731,0.17,43.47,51.33,31.63,33.62
"2016-07-25 15:40:00",245819,0.254,349.7,21.24,71.84,299.223,0,867.1401,0,-2.061,3.083,204,22.05,21.05,48.5141,0.161,43.47,51.33,31.63,33.62
"2016-07-25 15:50:00",245820,0.117,308.7,20.87,73.91,137.0311,0,867.3038,0,-3.386,3.099,184,22.1,21.07,17.78681,0.129,43.47,51.27,31.63,33.61
"2016-07-25 16:00:00",245821,0.104,123,20.44,77.71,136.9681,0,867.3091,0,-3.757,3.104,186,22.13,21.02,17.67639,0.129,43.42,51.33,31.62,33.62
"2016-07-25 16:10:00",245822,0.206,94,20.19,77.66,117.6502,0,867.3164,0,-3.677,3.105,192,22.2,20.95,14.77787,0.126,43.47,51.27,31.63,33.61
"2016-07-25 16:20:00",245823,0.162,49.72,19.88,79.84,104.1879,0,867.3157,0,-3.323,3.103,222,22.21,20.93,12.89104,0.123,43.47,51.27,31.63,33.61
"2016-07-25 16:30:00",245824,0.153,282,19.5,82.1,104.0769,0,867.3213,0,-1.374,3.086,201,22.17,20.93,13.54267,0.13,43.42,51.27,31.62,33.61
"2016-07-25 16:40:00",245825,0.135,290.4,19.21,81.8,71.86733,0,867.3361,0,-2.999,3.104,192,22.18,20.95,8.881972,0.124,43.42,51.27,31.62,33.61
"2016-07-25 16:50:00",245826,0.134,340.6,19.1,83.1,65.32018,0,867.4911,0,-3.723,3.111,192,22.18,20.97,8.150673,0.124,43.42,51.33,31.62,33.62
"2016-07-25 17:00:00",245827,0.06,15.23,19.06,83.6,80.07065,0,867.5203,0,-3.257,3.106,205,22.19,20.97,10.74269,0.134,43.42,51.27,31.62,33.61
"2016-07-25 17:10:00",245828,0.006,274.4,19.01,84.8,78.75596,0,867.5983,0,-4.478,3.118,194,22.23,21.02,10.32611,0.131,43.37,51.27,31.6,33.61
"2016-07-25 17:20:00",245829,0.18,48.08,18.99,84.4,69.80074,0,867.5909,0,-1.974,3.094,254,22.29,21.04,8.946965,0.128,43.37,51.27,31.6,33.61
"2016-07-25 17:30:00",245830,0.278,46.49,18.79,85.1,57.82597,0,867.6083,0,-2.581,3.101,213,22.29,21.06,7.306198,0.126,43.42,51.33,31.62,33.62
"2016-07-25 17:40:00",245831,0.165,79.27,18.66,87.6,50.61805,0,867.717,0,-2.199,3.098,214,22.29,21.06,6.339894,0.125,43.42,51.27,31.62,33.61
"2016-07-25 17:50:00",245832,0.478,106.3,18.46,91.5,43.83444,0,867.8411,0,-2.056,3.098,216,22.25,21.06,5.472096,0.125,43.42,51.27,31.62,33.61
"2016-07-25 18:00:00",245833,0.244,131.2,18.34,94.1,31.37152,0,867.8676,0,-3.629,3.113,201,22.23,21.08,4.062388,0.13,43.42,51.27,31.62,33.61
"2016-07-25 18:10:00",245834,0.278,128.8,18.23,96.5,23.92364,0,867.8704,0,-1.675,3.095,235,22.24,21.08,3.22111,0.135,43.37,51.33,31.6,33.62
"2016-07-25 18:20:00",245835,0.138,19.56,18.19,96.5,18.09896,0,867.8688,0,0.542,3.074,366,22.24,21.11,2.667837,0.148,43.37,51.27,31.6,33.61
"2016-07-25 18:30:00",245836,0.252,70.06,18.05,98.8,9.916105,0,867.9082,0,0.304,3.077,416,22.24,21.14,1.432446,0.143,43.37,51.27,31.6,33.61
"2016-07-25 18:40:00",245837,0.03,275.5,18.09,99.9,5.203695,0,867.9276,0,-3.771,3.116,225,22.24,21.13,0.9928597,0.196,43.42,51.27,31.62,33.61
"2016-07-25 18:50:00",245838,0.012,65.27,18,100,0.6170545,0,867.9031,0,-3.961,3.119,198,22.24,21.12,0.2955842,0.4,43.37,51.27,31.6,33.61
"2016-07-25 19:00:00",245839,0.012,40.22,17.89,99.9,0,0,867.912,0,-4.381,3.124,208,22.27,21.11,0.2197934,0,43.37,51.27,31.6,33.61
"2016-07-25 19:10:00",245840,0.081,159.7,17.66,100,0,0,867.9081,0,-3.92,3.12,213,22.2,21.11,0.09852806,0,43.37,51.27,31.6,33.61
"2016-07-25 19:20:00",245841,0.081,83.9,17.58,100,0,0,867.9259,0,-4.515,3.126,238,22.15,21.11,0.2235829,0,43.37,51.21,31.6,33.6
"2016-07-25 19:30:00",245842,0.008,129.6,17.48,100,0,0,868.0916,0,-2.951,3.112,242,22.15,21.1,0.1023176,0,43.37,51.27,31.6,33.61
"2016-07-25 19:40:00",245843,0.053,129.8,17.39,100,0,0,868.1571,0,1.222,3.072,411,22.17,21.1,0.2160038,0,43.37,51.27,31.6,33.61
"2016-07-25 19:50:00",245844,0.052,163.2,17.31,100,0,0,868.1603,0,1.682,3.068,337,22.17,21.1,0.2273725,0,43.32,51.27,31.59,33.61
"2016-07-25 20:00:00",245845,0.114,132.4,17.26,100,0,0,868.1589,0,0.96,3.075,445,22.06,21.1,0.2273725,0,43.32,51.21,31.59,33.6
"2016-07-25 20:10:00",245846,0.193,156.6,17.16,100,0,0,868.1656,0,1.134,3.074,454,22.06,21.1,0.2273725,0,43.37,51.27,31.6,33.61
"2016-07-25 20:20:00",245847,0,0,17.21,100,0,0,868.3514,0,-2.133,3.105,208,22.08,21.11,0.511588,0,43.37,51.27,31.6,33.61
"2016-07-25 20:30:00",245848,0.169,177.5,17.2,99.1,0,0,868.4174,0,-2.291,3.107,213,22.05,21.11,0.7200128,0,43.37,51.27,31.6,33.61
"2016-07-25 20:40:00",245849,0.176,154.4,17.06,99.8,0,0,868.4154,0,-1.989,3.105,223,21.98,21.12,0.74275,0,43.37,51.27,31.6,33.61
"2016-07-25 20:50:00",245850,0.176,147.7,16.96,100,0,0,868.4113,0,-1.735,3.103,221,21.99,21.12,0.6821174,0,43.32,51.27,31.59,33.61
"2016-07-25 21:00:00",245851,0.179,174.8,16.92,99.9,0,0,868.4091,0,-1.989,3.105,227,22.03,21.14,0.735171,0,43.37,51.27,31.6,33.61
"2016-07-25 21:10:00",245852,0.225,144.9,16.89,100,0,0,868.4113,0,-0.339,3.089,250,21.97,21.16,0.7616977,0,43.37,51.27,31.6,33.61
"2016-07-25 21:20:00",245853,0.098,167.5,16.94,99.5,0,0,868.2701,0,0.222,3.084,260,21.89,21.17,0.9398062,0,43.37,51.27,31.6,33.61
"2016-07-25 21:30:00",245854,0.122,156.7,16.89,99.7,0,0,868.1859,0,0.271,3.084,256,21.96,21.19,0.875384,0,43.37,51.27,31.6,33.61
"2016-07-25 21:40:00",245855,0.186,155.5,16.78,100,0,0,868.1649,0,0.318,3.084,258,21.92,21.19,0.8943317,0,43.37,51.27,31.6,33.61
"2016-07-25 21:50:00",245856,0.479,146.7,16.72,100,0,0,868.0342,0,0.421,3.083,262,21.82,21.19,0.8412781,0,43.32,51.21,31.59,33.6
"2016-07-25 22:00:00",245857,0.34,146.3,16.81,100,0,0,867.9142,0,-0.087,3.087,271,21.84,21.19,0.9777015,0,43.32,51.27,31.59,33.61
"2016-07-25 22:10:00",245858,0.09,155,16.96,98.2,0,0,867.9079,0,-0.547,3.091,294,21.83,21.19,1.030755,0,43.32,51.27,31.59,33.61
"2016-07-25 22:20:00",245859,0.201,131.4,16.86,100,0,0,867.8194,0,-0.554,3.092,266,21.75,21.18,0.7692768,0,43.32,51.27,31.59,33.61
"2016-07-25 22:30:00",245860,0.242,134.9,16.82,100,0,0,867.7794,0,0.222,3.084,343,21.72,21.18,0.9208584,0,43.32,51.21,31.59,33.6
"2016-07-25 22:40:00",245861,0.026,131.3,16.86,99.8,0,0,867.8889,0,-0.855,3.094,310,21.76,21.19,0.9587538,0,43.32,51.27,31.59,33.61
"2016-07-25 22:50:00",245862,0.039,191.6,16.94,99.8,0,0,867.83,0,-0.133,3.087,322,21.71,21.18,1.087598,0,43.32,51.27,31.59,33.61
"2016-07-25 23:00:00",245863,0.047,106.1,16.77,100,0,0,867.8342,0,-2.979,3.116,220,21.64,21.18,0.8299094,0,43.37,51.27,31.6,33.61
"2016-07-25 23:10:00",245864,0.011,161.4,16.54,100,0,0,867.7162,0,-3.816,3.126,184,21.68,21.17,0.5040089,0,43.37,51.27,31.6,33.61
"2016-07-25 23:20:00",245865,0.17,120.8,16.38,100,0,0,867.6761,0,-3.53,3.123,204,21.71,21.13,0.6176952,0,43.37,51.27,31.6,33.61
"2016-07-25 23:30:00",245866,0.447,143.4,16.32,100,0,0,867.5814,0,-2.373,3.112,228,21.67,21.12,0.4547449,0,43.32,51.27,31.59,33.61
"2016-07-25 23:40:00",245867,0.479,146,16.27,100,0,0,867.4192,0,-3.513,3.124,201,21.56,21.12,0.4054809,0,43.37,51.27,31.6,33.61
"2016-07-25 23:50:00",245868,0.269,142.5,16.18,100,0,0,867.4045,0,1.894,3.071,445,21.61,21.13,0.3562168,0,43.32,51.27,31.59,33.61
